Weather Roundup
Issued by NWS Chicago, IL

Home | Current Version | Previous Version | Text Only | Print | Product List | Glossary On
Versions: 1 2 3 4 5 6 7 8 9 10 11 12 13 14 15 16 17 18 19 20 21 22 23 24 25 26 27 28 29 30 31 32 33 34 35 36 37 38 39 40 41 42 43 44 45 46 47 48 49 50
000
NZUS59 KLOT 291321
HRRLOT

CHICAGO AREA WEATHER ROUNDUP
NATIONAL WEATHER SERVICE CHICAGO/ROMEOVILLE IL
800 AM CDT WED JUL 29 2015

NOTE: "FAIR" INDICATES FEW OR NO CLOUDS BELOW 12,000 FEET WITH NO
SIGNIFICANT WEATHER AND/OR OBSTRUCTIONS TO VISIBILITY.

* THESE STATIONS ARE NOT UNDER NWS QUALITY CONTROL. THEY ALSO MAY NOT
  REPORT WEATHER SUCH AS PRECIPITATION OR FOG.

ILZ005-006-012>014-019>023-291400-
NORTHEAST ILLINOIS

CITY           SKY/WX    TMP DP  RH WIND       PRES   REMARKS
OHARE          CLOUDY    76  72  87 W9        29.95R
MIDWAY         CLOUDY    78  70  76 W10       29.96R HX  80
AURORA         CLOUDY    77  72  84 NW8       29.97R HAZE
LANSING*       CLOUDY    75  70  84 W6        29.96S
JOLIET*        CLOUDY    75  73  93 W3        29.97S
WAUKEGAN       CLOUDY    76  72  87 W9        29.94R
DUPAGE AIRPORT CLOUDY    76  72  87 NW8       29.96R
WHEELING       CLOUDY    77  71  82 NW8       29.96R
KANKAKEE*      CLOUDY    74  74  97 W5        29.97S
MORRIS*        CLOUDY    75  73  94 CALM      29.95R VSB 1/4
LEWIS AIRPORT* CLOUDY    74  72  95 W7        29.97S
NORTHERLY IS     N/A     77  70  79 W12         N/A
$$

WIZ051-052-058>065-066-070>072-291400-
SOUTHEAST WISCONSIN

CITY           SKY/WX    TMP DP  RH WIND       PRES   REMARKS
MILWAUKEE      CLOUDY    78  70  76 NW10G22   29.92F HX  80
KENOSHA*       CLOUDY    76  72  87 NW8       29.95R
RACINE*        CLOUDY    77  70  79 NW10      29.96R
BURLINGTON     CLOUDY    73  67  83 NW16G26   29.96R
WAUKESHA       MOSUNNY   72  66  83 NW12      29.95F
WEST BEND      LGT RAIN  72  68  88 W8        29.93F
$$

INZ001>003-010>013-019-020-291400-
NORTHWEST INDIANA

CITY           SKY/WX    TMP DP  RH WIND       PRES   REMARKS
GARY*          CLOUDY    77  75  94 VRB5      29.96R
MICHIGAN CITY* NOT AVBL
RENSSELAER*    NOT AVBL
VALPARAISO     CLOUDY    78  73  84 W9        29.97R HX  81
$$

LMZ740>746-291400-
SOUTHERN LAKE MICHIGAN

STATION/POSITION TIME  SKY/WX   TEMP WIND        PRES    VSBY
                                AIR  DIR/SP/G
                 (UTC)          (F)  (DEG/KT/KT) (MB)    (MI)
HARRISON CRIB    1300            76  260/ 13/ 15   N/A
BURNHAM HARBOR   1300            77  240/ 11/ 12   N/A
CALUMET HARBOR   1200            75  220/  4/  6   N/A
BURNS HARBOR     1200            75  230/  8/  8 1014.6R
MICHIGAN CITY    1300            74  230/  8/  8   N/A
$$

ABBREVIATIONS USED IN REMARKS
   TC - TEMPERATURE IN CELSIUS
  WCI - WIND CHILL INDEX
   HX - HEAT INDEX
  VSB - VISIBILITY
$$


USA.gov is the U.S. government's official web portal to all federal, state and local government web resources and services.